This is the latest recevied weather packets stored in our database for station/object KD9JJA. If no packets are shown the sender has not sent any weather packets the latest 10 day(s).
| Time | Temp. | Humidity | Pressure | Rain* | Wind** | Luminosity | Snow |
|---|---|---|---|---|---|---|---|
| 1778202473 | 12.78° C | 65% | 1015.9 hPa | 0 mm | - | 0 W/m² | - |
| 1778202171 | 12.78° C | 66% | 1015.6 hPa | 0 mm | - | 0 W/m² | - |
| 1778201868 | 13.33° C | 62% | 1015.5 hPa | 0 mm | - | 0 W/m² | - |
| 1778201564 | 13.33° C | 61% | 1015.6 hPa | 0 mm | - | 0 W/m² | - |
| 1778201260 | 13.33° C | 60% | 1015.7 hPa | 0 mm | - | 0 W/m² | - |
| 1778200957 | 13.33° C | 67% | 1015.7 hPa | 0 mm | - | 0 W/m² | - |
| 1778200653 | 13.89° C | 61% | 1015.5 hPa | 0 mm | - | 0 W/m² | - |
| 1778200351 | 14.44° C | 59% | 1015.8 hPa | 0 mm | - | 1 W/m² | - |
| 1778200047 | 14.44° C | 58% | 1015.5 hPa | 0 mm | - | 2 W/m² | - |
| 1778199744 | 15° C | 53% | 1015.5 hPa | 0 mm | - | 3 W/m² | - |
| 1778199440 | 15° C | 57% | 1015.7 hPa | 0 mm | - | 4 W/m² | - |
| 1778199135 | 15° C | 54% | 1015.6 hPa | 0 mm | - | 6 W/m² | - |
| 1778198832 | 15.56° C | 50% | 1015.6 hPa | 0 mm | - | 7 W/m² | - |
| 1778198530 | 15.56° C | 52% | 1015.5 hPa | 0 mm | - | 8 W/m² | - |
| 1778198226 | 15.56° C | 52% | 1015.6 hPa | 0 mm | - | 8 W/m² | - |
| 1778197923 | 15.56° C | 50% | 1015.5 hPa | 0 mm | - | 9 W/m² | - |
| 1778197620 | 15.56° C | 47% | 1015.6 hPa | 0 mm | - | 11 W/m² | - |
| 1778197317 | 15.56° C | 53% | 1015.3 hPa | 0 mm | - | 12 W/m² | - |
| 1778197013 | 16.11° C | 52% | 1015.5 hPa | 0 mm | - | 14 W/m² | - |
| 1778196712 | 15.56° C | 50% | 1015.3 hPa | 0 mm | - | 16 W/m² | - |
| 1778196408 | 16.11° C | 47% | 1015.2 hPa | 0 mm | - | 14 W/m² | - |
| 1778196105 | 16.11° C | 45% | 1015.4 hPa | 0 mm | - | 18 W/m² | - |
| 1778195802 | 16.11° C | 44% | 1015.3 hPa | 0 mm | - | 19 W/m² | - |
| 1778195499 | 16.11° C | 43% | 1015.5 hPa | 0 mm | - | 33 W/m² | - |
| 1778195195 | 16.11° C | 50% | 1015.5 hPa | 0 mm | - | 21 W/m² | - |
* Rain latest hour (hover to see other rain measurements)
** Current wind speed in m/s (hover to see current wind gust speed)